Location: Champseau
(45.8333°N, 1.7667°E)
Time: 15:13:28
(UTC+00:00)

X-37B - Pass Details

Date: 26 September 2021
Orbit: 385 x 389 km, 45.0° (Epoch: 17 October)

Event Time Altitude Azimuth Distance (km) Brightness Sun altitude
Exits shadow 04:17:32 41° 234° (SW) 571 0.9 -15.9°
Maximum altitude 04:18:25 65° 169° (S) 430 0.7 -15.8°
Drops below altitude 10° 04:21:35 10° 87° (E) 1,416 4.7 -15.2°
Sets 04:23:40 0° 84° (E) 2,272 6.3 -14.9°
